GFSMA_500_rhum_102.txt.gz
RH
52 47 44 39 34 28 20 18 15 14 13 13 12 12 12 11 10 9 8 9 10 11 12 17 24 28 30 32 34 28 24 24 21 21 25 32 37 35 38 50 40 38 43
56 51 47 43 34 28 22 20 16 15 14 13 14 14 14 14 14 13 12 12 13 13 16 22 27 30 33 35 34 32 26 20 20 17 17 30 40 47 49 44 40 42 41
62 59 55 48 35 34 28 21 18 15 15 16 32 27 17 19 19 19 19 20 22 23 25 28 31 34 38 39 37 32 28 26 20 17 23 48 48 50 49 46 44 40 43
72 65 60 56 44 37 34 25 20 18 19 31 58 32 22 24 25 28 28 27 28 30 33 34 36 37 38 36 34 27 25 22 17 18 24 64 56 53 48 43 39 40 45
77 70 64 58 46 40 34 26 25 67 26 58 90 27 37 27 36 47 40 32 31 32 34 36 41 40 35 32 27 25 22 20 19 23 54 56 54 51 41 40 44 48 54
80 74 66 57 43 37 30 28 44 57 32 52 80 34 91 30 36 48 43 42 29 33 31 31 32 34 28 27 29 25 21 23 27 51 54 59 50 48 45 45 49 53 58
81 75 66 54 42 34 32 62 62 33 39 83 86 42 78 29 29 51 67 85 56 50 32 30 33 36 30 30 33 27 32 46 44 54 65 56 55 49 44 51 54 56 63
87 82 78 62 51 60 54 92 44 65 88 59 80 65 50 32 90 82 92 96 93 78 59 63 61 56 49 50 58 60 67 70 71 66 61 51 46 49 61 68 61 56 66
86 82 89 85 76 95 93 59 63 90 56 72 94 96 66 80 93 94 94 95 87 89 88 85 84 79 72 72 73 76 77 76 65 57 54 50 50 58 56 63 60 51 62
94 94 95 94 96 96 95 97 87 86 78 95 96 97 97 98 89 96 97 96 95 97 98 97 93 90 83 68 69 62 61 60 55 50 52 52 60 62 60 58 60 61 56
96 95 97 96 95 94 98 92 72 93 96 96 97 96 96 98 97 94 95 94 95 93 83 85 85 80 76 65 58 47 45 45 48 51 52 55 68 72 69 64 65 74 68
96 96 96 97 96 96 96 95 96 96 96 95 96 96 97 98 99 98 100 100 99 94 97 95 84 74 56 46 40 43 43 47 53 53 54 57 55 45 34 23 18 16 24
96 97 96 95 96 97 97 92 96 97 97 97 97 96 97 95 93 88 71 54 40 37 53 48 36 33 32 32 37 40 45 49 56 51 42 40 26 11 9 8 8 9 10
93 98 98 97 94 97 96 80 95 97 93 94 96 97 95 93 74 54 45 31 23 24 22 18 12 12 13 18 32 46 52 48 38 28 15 9 8 7 8 8 10 16 15
96 98 97 98 97 97 97 96 97 96 97 96 94 93 92 81 59 42 28 29 20 13 10 11 12 28 34 28 27 36 37 19 9 8 7 6 9 13 16 21 23 26 29
97 98 96 90 94 92 96 95 96 92 97 91 85 60 47 45 40 25 22 17 14 8 10 13 16 22 30 31 25 11 9 8 7 8 8 10 14 17 23 27 36 46 47
52 57 60 80 77 77 84 85 92 75 80 58 44 47 36 30 20 18 15 12 11 11 14 13 15 22 16 11 10 8 8 9 10 10 12 15 20 24 28 36 52 64 72
52 49 49 47 55 63 57 58 70 72 88 58 40 31 23 20 20 19 18 14 13 14 12 12 12 12 12 10 10 11 11 11 13 17 16 19 23 28 41 54 61 69 79
53 50 47 48 50 56 57 50 57 81 72 45 25 22 22 22 21 21 19 15 15 14 12 12 13 12 12 11 11 12 12 15 21 19 17 25 31 40 54 60 70 79 75
47 45 44 46 49 50 51 50 47 39 34 28 26 26 27 27 24 23 22 18 16 13 13 14 14 14 14 14 14 12 13 16 20 17 24 34 48 49 48 58 76 80 85
30 43 43 44 44 44 42 40 39 36 35 34 36 33 32 28 25 24 24 19 14 14 16 17 18 16 15 15 12 13 19 21 21 24 36 44 51 56 55 70 78 69 83
22 35 40 46 46 48 48 50 49 48 48 45 39 36 32 29 27 26 22 17 15 17 19 20 21 17 16 13 14 20 23 30 22 34 40 46 60 65 65 78 77 80 81
39 46 50 52 55 53 54 53 51 47 43 39 36 34 33 31 28 26 22 19 19 21 24 24 21 18 16 16 21 21 26 29 27 41 43 49 59 63 71 78 82 88 73
11 17 24 34 41 47 54 48 40 35 33 33 35 37 36 35 32 29 26 27 27 28 27 24 20 19 21 22 22 26 33 24 28 48 49 55 58 64 72 76 76 80 76
12 14 11 9 20 42 57 69 74 60 45 42 44 45 46 46 42 40 37 33 33 32 28 26 30 33 30 28 33 37 30 25 33 52 54 58 63 59 66 79 79 81 89
18 19 15 15 11 14 46 65 75 83 77 69 64 57 50 50 46 42 44 41 39 39 34 35 38 44 41 31 31 30 29 30 52 62 62 60 64 68 72 74 76 86 92

GFSMA_500_rhum_105.txt.gz
RH
55 52 55 50 42 33 26 25 22 18 15 14 14 13 12 11 11 11 10 10 9 9 10 10 12 14 20 26 29 32 34 32 29 26 19 17 13 13 29 44 47 48 43
92 59 59 52 42 37 36 32 26 22 19 16 15 14 13 14 17 14 14 14 14 14 14 14 16 20 25 29 31 33 35 37 32 24 21 17 14 15 31 47 48 49 40
74 68 58 51 46 39 40 37 33 29 23 18 16 16 15 26 40 21 17 18 18 22 23 24 26 28 31 32 35 33 35 32 26 25 22 19 20 25 39 47 50 46 45
73 69 63 58 50 48 42 38 33 29 25 23 18 17 18 29 52 35 24 25 33 37 33 29 30 31 30 31 32 35 30 27 27 27 23 22 32 46 44 57 51 48 44
80 72 68 64 59 57 53 48 42 35 29 23 20 40 28 66 71 44 50 33 51 58 42 37 33 35 38 32 26 29 32 30 31 34 30 41 44 53 58 53 47 46 48
86 79 75 72 67 64 58 52 45 35 30 25 28 50 41 71 69 41 78 40 31 43 66 79 68 47 55 39 31 37 46 41 42 56 55 58 67 62 55 49 46 49 54
87 86 84 78 74 72 65 57 48 29 26 26 46 85 38 73 94 51 64 52 28 50 75 79 88 83 73 62 63 68 68 65 62 63 59 57 53 52 49 43 44 48 58
96 94 90 86 79 77 68 56 36 29 32 57 81 50 45 53 69 85 78 46 43 86 89 88 89 84 84 90 88 85 75 69 62 55 55 52 45 38 35 42 52 61 67
96 94 89 83 74 70 72 64 80 89 95 89 84 69 71 84 86 96 95 70 72 97 98 88 87 94 91 80 82 74 72 65 59 51 46 41 39 40 41 50 60 67 71
96 96 96 94 93 94 94 98 97 98 96 95 90 84 89 92 96 96 97 92 95 96 95 92 77 81 80 72 72 75 70 64 57 50 46 43 40 42 48 61 60 60 44
96 94 96 97 94 96 98 96 97 97 96 97 97 97 93 88 95 98 95 94 90 83 84 82 80 81 85 82 71 66 43 46 32 31 35 44 56 57 50 41 33 17 10
95 92 96 95 95 94 97 96 94 96 96 97 97 100 96 94 98 90 89 95 96 94 78 55 56 60 64 55 50 38 32 17 16 22 19 26 32 41 24 10 8 7 6
97 96 95 95 96 97 96 95 98 95 97 97 98 79 77 95 84 90 99 97 83 61 38 35 36 27 23 18 15 14 11 11 11 13 16 37 31 14 9 7 8 9 10
98 97 94 98 100 97 97 95 98 91 94 94 95 95 87 90 99 99 97 88 76 65 48 29 24 21 17 13 11 11 11 16 17 24 28 13 9 7 9 9 11 15 18
99 98 97 93 94 97 97 97 87 98 94 95 98 96 99 99 96 93 82 72 66 46 35 29 22 14 11 10 9 11 13 16 21 11 9 7 9 10 10 11 13 19 22
95 97 96 96 97 95 96 97 96 96 96 96 95 96 96 88 79 85 70 49 39 36 31 26 18 12 11 10 10 14 17 11 10 9 11 10 10 9 10 14 17 20 26
83 72 74 64 61 56 61 68 82 83 82 85 94 96 93 60 56 58 49 39 31 26 22 20 15 13 12 11 10 11 12 11 10 11 11 9 8 10 17 16 20 23 34
70 72 66 58 49 45 45 44 51 70 76 69 81 72 88 80 65 49 37 31 27 36 28 22 16 15 13 12 11 12 12 13 14 13 11 9 12 17 18 21 29 33 39
45 44 44 48 51 50 50 49 50 54 58 60 59 65 82 87 82 43 44 41 34 26 23 26 20 16 14 12 13 14 14 15 15 12 10 13 18 18 20 31 42 44 46
38 36 35 34 41 44 44 44 49 53 54 62 67 73 72 73 73 46 33 29 29 29 24 24 22 17 13 14 15 17 17 16 14 12 14 17 21 21 28 43 49 51 47
36 41 40 41 41 42 47 52 50 46 45 46 58 78 63 41 31 31 34 34 32 29 26 25 21 16 14 16 19 20 19 16 13 16 16 21 25 24 35 44 48 53 61
14 22 30 31 30 35 47 56 61 62 61 58 55 55 64 75 72 67 42 38 33 29 26 24 19 16 18 20 23 22 18 15 16 20 18 20 24 28 42 50 48 58 61
6 6 6 7 7 7 9 13 18 25 36 50 57 57 53 51 60 62 88 42 35 32 28 26 23 23 23 25 26 23 20 18 20 20 17 26 22 37 44 56 55 58 63
7 6 7 8 9 11 11 11 10 9 12 25 50 59 44 43 44 46 44 43 44 38 38 36 30 30 30 34 32 30 28 30 26 22 24 28 24 39 49 53 51 53 65
10 10 10 10 10 11 14 14 15 14 14 20 39 61 70 50 43 46 48 58 55 55 51 46 39 39 40 37 33 35 34 27 31 27 23 32 35 51 57 53 58 56 60
13 12 12 12 12 12 14 16 19 15 15 24 54 65 72 83 71 59 59 60 58 63 54 50 46 51 54 42 50 48 49 33 30 26 37 49 66 68 62 57 63 65 66

GFSMA_500_rhum_111.txt.gz
RH
51 61 75 71 63 52 51 47 42 34 24 20 17 17 16 16 14 13 12 12 11 11 12 12 12 12 14 15 16 19 21 23 25 26 28 31 31 29 41 49 44 45 45
60 49 67 80 75 59 52 52 48 43 35 27 23 23 21 18 16 15 14 14 13 12 18 28 23 18 19 25 34 30 28 29 34 43 46 50 52 42 48 50 51 51 48
61 53 53 70 78 71 60 52 51 51 46 38 32 30 26 23 21 19 16 16 15 14 24 35 40 33 27 41 56 55 49 42 46 52 52 58 63 54 54 51 49 50 49
96 81 55 65 76 73 72 61 52 53 55 44 38 33 31 30 26 22 20 18 17 15 21 42 50 58 42 35 46 58 63 65 67 74 73 66 59 57 55 52 54 53 51
95 92 67 61 73 81 78 84 64 58 57 49 44 37 35 33 30 24 23 22 20 19 22 36 55 63 70 58 49 39 36 47 68 73 56 53 59 60 56 57 54 53 50
97 98 94 71 75 92 82 84 92 66 60 50 50 48 45 44 36 29 27 27 26 34 38 42 53 65 75 58 58 51 37 74 77 70 63 67 67 61 61 59 57 56 52
69 97 96 96 96 72 98 97 96 72 62 64 58 53 55 56 49 42 37 36 40 41 41 42 53 78 75 65 61 68 52 83 80 71 72 74 68 68 67 63 61 52 46
88 96 96 99 97 92 69 98 96 92 73 71 63 62 60 58 52 50 44 46 41 46 41 56 72 77 72 67 65 66 61 79 70 63 62 64 65 64 64 60 55 43 25
92 96 95 96 95 96 96 96 95 94 78 75 71 67 76 74 66 66 76 77 43 78 86 94 87 78 60 64 78 77 64 75 70 64 69 69 66 65 60 51 29 14 12
94 96 96 97 95 94 95 99 93 84 87 79 86 88 93 87 74 83 91 94 86 87 91 94 94 85 91 83 86 81 79 80 75 64 63 59 40 21 20 15 15 14 12
87 96 94 97 96 96 95 94 92 95 94 94 96 95 95 93 95 88 91 95 91 95 90 99 90 92 85 81 69 68 74 66 58 45 25 20 20 17 15 12 11 11 12
54 56 76 95 97 96 96 98 98 97 96 94 94 96 96 92 98 97 96 100 98 98 97 99 92 92 90 85 75 64 65 52 27 20 23 21 17 14 12 10 10 10 10
99 73 96 96 97 96 96 97 97 95 97 94 97 96 97 96 98 98 96 97 98 91 93 98 93 93 97 79 70 57 42 26 25 22 19 18 13 12 18 17 13 10 9
95 96 97 97 96 96 97 96 96 98 97 90 88 94 97 97 95 95 92 94 82 94 89 93 90 96 97 68 42 45 35 30 29 27 28 21 22 23 14 12 10 10 9
95 96 97 97 95 95 96 98 96 92 86 89 90 96 85 86 96 96 91 82 99 96 98 97 95 95 88 69 65 45 48 44 33 26 18 22 14 16 11 10 10 10 12
96 97 96 94 96 95 96 95 91 74 72 91 95 94 79 90 96 95 86 77 81 88 82 93 97 94 93 91 91 68 45 41 43 36 31 22 18 14 12 11 12 15 17
97 96 94 94 95 95 96 93 54 73 83 87 76 88 89 82 90 83 78 78 84 92 80 94 95 92 89 86 73 60 45 66 47 36 23 22 18 14 12 13 16 19 17
85 66 62 65 52 56 51 61 56 57 68 67 61 55 62 81 91 97 89 92 96 99 95 90 84 72 77 82 77 57 39 32 34 26 22 22 16 13 14 15 18 20 16
48 52 56 60 58 60 62 63 66 68 65 62 60 59 59 57 66 82 80 96 96 97 98 96 98 92 89 82 77 66 36 24 32 28 24 21 16 14 15 17 20 20 15
17 15 14 12 12 14 16 18 22 28 32 32 36 39 42 48 55 63 68 71 97 97 96 97 98 99 98 97 97 97 82 48 45 48 28 28 34 22 16 20 20 18 13
5 5 5 5 5 5 6 6 7 6 6 6 6 5 5 5 6 17 32 48 66 86 98 99 98 98 99 99 99 98 98 96 54 72 37 68 30 20 19 22 21 18 14
6 6 6 5 6 6 6 6 6 6 6 7 9 10 9 9 9 8 7 6 15 32 44 56 90 99 100 100 99 98 96 97 90 62 92 89 41 22 25 26 22 18 16
5 5 5 5 6 6 6 6 7 7 7 7 8 11 10 10 11 12 12 11 9 10 23 37 35 53 64 95 100 100 99 100 99 79 77 51 44 33 30 30 26 23 20
8 8 8 9 9 9 9 9 8 7 7 10 13 14 14 14 12 11 12 13 14 14 24 32 42 59 61 78 91 97 97 91 96 98 73 63 58 40 44 35 34 33 22
10 9 10 9 9 11 11 11 10 10 11 11 10 10 11 13 14 19 17 16 17 20 24 53 59 56 57 54 55 56 62 67 80 84 83 64 79 71 46 42 41 34 23
11 12 13 13 13 14 15 15 13 12 10 7 7 12 14 15 14 14 17 23 25 28 52 92 86 94 78 74 63 62 61 63 60 66 84 96 84 69 59 54 54 32 29

GFSMA_500_rhum_114.txt.gz
RH
44 60 47 41 50 65 63 56 52 47 42 40 30 20 17 16 18 18 17 15 15 13 13 12 11 12 17 17 19 22 21 28 37 41 38 36 45 58 62 61 60 54 48
42 59 72 55 48 57 68 63 58 57 51 46 40 32 23 21 21 23 20 19 19 18 16 14 13 14 27 34 36 44 32 31 49 62 64 60 65 64 65 58 54 52 54
7 23 64 76 70 55 55 60 62 64 60 54 48 44 36 30 29 30 29 27 26 24 19 18 17 15 22 33 42 42 58 49 42 42 42 39 52 67 53 56 60 60 54
7 8 16 58 75 74 61 54 67 67 64 61 56 53 49 40 36 35 34 32 29 28 27 27 26 23 20 25 37 40 59 69 71 56 44 44 70 70 57 66 66 62 57
9 9 13 42 92 83 77 61 54 64 69 73 59 56 54 51 43 39 36 34 34 33 37 38 37 35 34 28 39 45 58 74 78 63 61 64 77 72 68 72 69 63 61
11 9 12 46 97 95 96 96 70 81 66 90 77 70 59 53 51 45 39 39 41 42 43 43 44 41 39 42 44 47 52 83 79 66 67 67 78 67 65 61 60 63 60
17 8 11 44 99 97 96 88 97 69 68 85 92 81 74 56 54 48 48 46 49 47 51 46 44 42 46 46 48 49 79 89 76 69 67 68 77 73 68 65 60 58 55
19 8 9 45 84 96 96 97 96 89 84 86 84 92 92 56 56 60 57 70 67 64 71 63 58 57 53 53 69 77 87 85 68 72 82 73 73 76 69 59 50 46 33
17 9 8 15 56 94 97 96 96 96 97 92 99 92 91 90 82 83 83 68 75 92 93 65 71 78 82 88 93 83 85 84 84 87 89 82 80 71 58 44 34 22 18
11 13 13 10 29 70 72 96 95 97 96 95 92 82 85 95 94 82 90 93 95 96 91 91 93 89 89 86 79 79 82 88 86 79 68 67 67 60 40 28 23 16 13
19 14 17 19 59 96 98 96 97 97 97 96 96 96 94 86 91 94 98 95 96 100 97 99 98 96 86 89 87 86 79 79 88 86 71 60 49 31 21 20 17 14 13
39 52 68 59 51 99 97 95 86 80 84 95 96 96 96 93 96 97 92 97 97 100 98 96 95 92 87 85 82 91 89 87 91 74 58 38 24 20 20 17 16 18 23
88 74 97 90 71 94 94 97 96 96 97 97 95 96 98 97 97 97 98 100 97 98 98 96 90 85 90 85 87 84 81 92 93 64 50 23 24 23 21 21 19 27 18
97 97 98 98 100 91 92 95 93 96 96 95 96 95 94 95 95 96 88 84 79 78 83 97 89 77 89 96 98 98 95 94 95 60 41 32 32 32 28 19 33 16 17
97 97 97 97 98 97 98 95 95 96 96 97 97 97 90 81 94 98 95 88 81 87 82 90 80 75 98 99 98 98 98 100 96 65 46 65 50 46 55 45 23 17 16
96 96 96 96 97 96 96 97 97 97 96 96 93 86 76 80 93 100 94 94 96 97 91 87 81 80 93 100 92 99 99 98 95 90 90 90 64 72 83 44 21 18 14
96 97 96 96 96 97 97 96 96 96 96 87 67 80 85 94 96 95 96 97 96 97 90 91 82 87 92 96 95 89 89 89 97 95 91 85 82 78 44 31 22 20 14
97 96 93 92 87 91 82 62 70 91 77 74 73 77 79 80 76 68 64 61 63 77 96 96 98 92 98 98 90 99 95 93 93 96 96 94 74 44 25 37 24 17 14
68 73 74 63 53 54 53 55 40 23 9 6 6 7 7 10 12 15 17 29 34 47 61 74 79 96 98 98 97 98 97 94 94 94 93 90 88 66 29 47 77 58 78
14 7 6 5 5 5 5 5 5 5 6 6 6 6 6 6 6 7 7 6 6 5 9 22 38 48 52 94 98 98 98 99 99 96 98 98 97 97 92 70 84 65 84
6 6 6 5 5 5 5 5 5 5 6 6 6 6 6 6 6 7 7 8 8 9 9 8 6 6 21 42 69 92 97 98 98 99 99 100 97 98 98 98 91 97 62
6 5 5 6 6 6 6 7 8 8 9 9 10 9 9 10 10 11 11 11 12 13 12 11 10 10 8 9 53 78 64 100 98 98 100 98 97 94 98 98 95 94 76
8 8 8 8 9 9 10 11 11 12 13 14 14 14 14 15 15 14 12 11 9 9 11 13 12 11 11 15 16 41 75 91 99 100 99 96 97 95 96 81 71 68 76
10 10 9 9 12 14 14 15 15 15 15 15 14 13 13 15 15 12 9 7 7 8 12 16 15 16 16 20 38 23 64 65 70 74 99 98 80 60 65 87 85 65 57
13 13 15 16 15 15 16 18 18 18 17 15 13 12 12 11 8 4 3 4 8 15 22 26 29 29 39 42 97 92 99 100 100 100 100 71 61 63 69 78 77 69 82
18 18 16 14 17 20 21 21 18 14 12 11 9 10 10 6 3 2 3 3 4 8 15 24 20 24 100 29 28 46 93 94 89 83 74 66 67 64 67 72 85 93 95

GFSMA_500_rhum_117.txt.gz
RH
25 24 33 53 52 50 45 46 54 56 52 49 46 40 34 25 18 15 15 17 20 20 18 17 16 16 15 14 13 17 27 32 36 39 46 51 46 44 43 43 50 53 46
20 21 31 35 43 49 51 49 52 60 60 57 55 48 39 34 29 20 19 20 22 25 24 23 22 22 21 18 18 15 20 29 41 50 42 60 69 73 53 47 58 59 54
11 8 26 48 52 64 66 68 63 59 65 66 65 58 53 44 35 29 23 22 24 29 31 30 28 27 27 30 30 28 23 25 33 46 44 57 63 77 62 59 65 65 65
16 12 8 9 22 52 62 64 78 80 63 58 66 68 64 59 49 43 34 31 30 33 36 35 33 34 35 36 35 35 37 38 36 38 46 55 68 83 67 66 73 64 56
16 17 16 10 9 13 22 41 61 84 96 74 69 65 69 72 62 52 47 42 38 37 39 40 38 38 41 43 41 39 38 37 39 42 48 53 74 84 76 64 69 68 62
16 18 18 17 12 10 11 90 61 87 96 96 84 52 56 76 74 60 57 52 44 42 41 42 43 44 47 47 42 43 39 37 44 46 58 80 81 83 65 64 72 72 65
15 18 20 21 19 11 16 34 93 95 97 94 84 67 58 71 80 86 93 74 47 43 40 41 44 46 58 55 50 61 58 48 58 62 83 77 80 89 87 83 77 76 68
18 17 21 24 24 18 10 21 80 87 98 96 95 96 98 97 78 96 97 96 58 39 33 39 50 76 78 75 86 81 69 88 84 84 72 76 78 81 83 84 86 77 57
22 18 27 31 28 24 11 9 65 97 97 96 95 94 96 96 95 96 94 94 96 40 61 85 93 95 87 93 96 83 95 88 80 82 82 74 72 83 83 77 66 63 40
39 39 39 35 32 29 19 8 9 61 96 99 96 96 97 96 96 95 92 96 97 98 97 94 96 98 96 93 98 98 87 70 70 84 81 88 75 82 79 70 65 42 22
43 41 40 36 34 27 14 12 12 14 90 92 97 97 96 94 95 97 96 94 96 96 94 95 97 99 92 98 96 91 79 75 72 85 78 99 96 91 72 53 33 21 17
41 37 33 19 14 12 15 14 14 17 86 94 97 92 96 96 96 96 94 96 96 99 97 97 96 98 97 97 94 88 80 73 79 85 86 100 99 92 60 45 24 22 23
29 19 16 25 37 26 37 33 32 53 99 96 90 93 90 95 96 96 96 98 98 99 95 97 97 96 94 94 88 93 90 79 96 87 95 90 96 95 73 43 30 31 29
14 31 46 67 82 97 91 82 81 97 97 85 95 95 91 95 96 97 97 96 96 97 97 98 97 95 94 92 96 96 97 99 96 100 97 92 92 96 90 60 39 50 54
46 72 68 87 91 98 99 96 97 92 94 96 97 96 98 98 97 96 97 96 96 88 88 94 96 97 96 97 97 96 95 92 97 100 99 85 98 100 94 73 60 80 70
83 90 91 96 97 95 96 94 97 97 97 97 97 96 97 96 92 96 92 94 93 92 75 67 72 88 91 92 94 95 97 91 91 97 93 88 90 98 97 90 92 88 74
98 97 97 96 97 96 97 96 96 97 97 97 97 85 68 60 63 67 71 74 62 53 54 48 48 38 26 28 47 74 81 97 98 97 98 98 92 84 95 100 95 92 87
96 98 96 97 96 96 95 95 94 89 86 68 64 42 18 6 5 4 5 5 5 5 5 5 5 6 12 21 38 41 44 44 64 94 98 99 98 100 98 100 95 95 96
97 96 94 83 73 69 56 47 54 26 14 6 5 5 5 5 5 6 6 6 6 6 6 6 7 7 7 7 7 7 10 26 58 70 90 98 98 98 97 97 100 97 99
34 23 25 15 10 6 6 6 6 6 5 6 6 6 7 8 9 10 10 11 12 12 12 12 12 12 12 12 10 9 8 9 13 17 52 76 96 98 97 95 96 96 96
5 6 6 7 7 6 6 6 6 7 8 9 11 12 13 14 14 14 14 14 13 13 13 14 14 14 13 13 12 11 10 10 10 14 61 96 100 84 90 88 92 98 83
7 7 6 6 7 8 9 10 10 12 13 13 14 15 15 16 15 14 13 12 11 11 11 12 11 9 7 5 6 8 12 19 13 13 76 100 99 80 98 97 98 95 92
8 9 10 10 10 9 10 11 13 12 12 16 18 18 19 20 20 20 17 15 13 12 10 9 8 5 3 4 11 17 20 100 53 31 56 71 99 96 100 92 93 99 89
10 11 11 11 11 13 14 15 15 15 16 19 21 22 23 24 27 25 21 18 14 11 10 8 5 2 2 4 12 32 54 64 88 77 99 100 100 100 99 89 99 96 69
15 16 15 15 14 14 14 14 16 20 25 27 28 29 30 28 28 26 23 19 13 10 8 5 2 2 2 4 35 100 61 47 76 92 68 98 95 86 95 99 92 69 55
15 18 18 19 19 19 20 24 27 27 24 29 33 29 26 26 28 25 20 14 10 8 5 2 2 4 5 10 14 34 98 100 100 100 100 100 100 100 100 95 75 63 63

GFSMA_500_rhum_120.txt.gz
RH
30 20 26 32 40 45 66 64 51 44 45 48 53 52 46 40 35 29 18 14 14 14 15 16 18 19 19 19 19 16 17 16 15 17 22 26 32 37 42 51 57 78 67
43 45 37 37 29 31 33 54 56 57 48 47 52 57 56 50 44 40 34 25 19 16 17 18 19 22 24 25 24 24 23 24 27 26 29 36 43 37 41 49 52 70 76
30 54 43 42 39 37 20 28 45 53 59 58 50 50 58 60 55 48 44 39 33 26 21 19 20 25 30 30 30 30 29 32 35 35 35 32 35 37 49 52 68 73 78
26 23 14 16 20 44 42 28 47 53 64 70 76 66 55 61 66 60 56 53 47 43 37 34 30 29 33 34 32 33 32 32 29 29 31 31 34 41 52 68 67 75 72
49 25 14 14 16 20 15 11 12 15 22 99 70 94 93 75 66 74 69 61 58 50 50 46 43 38 34 32 29 28 31 31 30 39 43 48 44 60 78 66 64 72 74
42 40 20 12 16 17 18 18 14 12 12 23 54 79 77 98 97 86 83 75 74 70 55 48 50 43 35 30 32 34 38 40 43 52 64 62 68 76 72 64 65 80 76
25 52 41 23 14 16 18 17 16 22 13 16 46 70 76 88 97 97 85 84 79 85 76 82 91 60 30 27 28 33 50 56 89 76 85 95 83 72 72 64 66 76 71
24 21 23 27 16 13 17 19 20 22 22 16 23 72 83 95 92 99 94 96 77 86 85 85 91 68 44 39 23 38 70 95 97 96 95 89 74 73 68 67 70 71 73
21 21 22 25 21 17 18 19 23 26 26 27 20 30 73 96 94 95 96 96 96 96 94 94 97 96 96 95 61 82 97 95 96 93 95 78 75 69 73 76 86 77 72
30 27 26 27 28 27 22 20 28 33 31 28 20 14 75 96 95 98 93 95 97 96 97 97 96 96 95 96 97 96 94 99 94 89 85 78 72 81 83 78 89 88 78
43 38 37 39 40 37 28 34 35 37 35 33 26 12 10 27 58 92 92 92 90 90 98 96 96 97 97 96 97 97 96 96 95 89 85 82 77 72 82 82 92 94 88
56 52 47 46 44 43 42 42 41 40 32 21 16 19 18 28 91 95 90 88 96 97 94 92 97 96 96 96 94 95 94 93 96 92 89 90 83 85 84 86 93 97 93
55 51 48 47 46 45 43 40 32 16 17 19 18 31 83 95 92 94 83 92 94 94 94 96 96 97 96 96 94 96 93 93 91 94 95 86 82 84 90 89 84 92 88
52 51 49 48 45 40 30 17 40 57 51 58 76 73 96 96 91 90 96 98 95 97 100 97 97 96 96 97 86 74 93 90 95 92 96 94 89 88 95 97 92 87 83
39 40 42 38 33 24 29 48 94 97 70 86 96 98 96 95 98 99 97 97 96 80 53 43 42 70 58 46 49 43 34 22 30 39 42 75 47 84 94 99 98 92 94
28 27 26 25 25 55 76 93 96 94 86 80 97 97 98 98 97 94 68 52 39 18 11 16 13 12 14 12 9 8 15 13 12 14 19 34 42 46 48 81 97 97 99
86 67 70 66 87 80 81 86 94 98 96 98 98 97 96 90 69 39 23 9 8 6 5 5 5 5 5 5 6 6 6 6 6 6 6 5 5 9 26 51 54 72 71
98 100 93 100 99 96 96 97 96 96 96 96 95 77 37 29 20 6 5 5 6 7 8 8 9 10 10 10 11 10 11 11 11 11 11 10 9 8 6 6 17 70 68
97 97 98 97 97 95 95 94 92 84 64 55 33 18 6 6 6 7 8 9 11 12 12 11 10 9 10 11 11 11 12 12 11 11 11 11 11 11 10 9 11 42 97
98 98 96 92 68 35 20 9 9 9 6 5 6 7 8 10 12 12 14 15 16 15 14 14 14 14 15 14 14 13 12 11 10 8 8 7 7 8 10 17 26 62 81
32 32 46 39 22 8 6 6 6 8 9 10 11 13 14 15 17 18 19 20 20 20 22 24 26 25 23 22 19 16 14 11 8 7 5 5 28 12 29 91 90 70 98
6 6 7 7 7 8 8 8 8 10 12 15 16 16 16 17 18 21 22 25 28 29 28 30 30 29 28 26 22 17 13 10 7 4 5 18 13 32 100 82 98 96 100
8 8 9 9 9 10 12 12 14 16 17 17 17 17 20 24 26 26 29 32 33 31 29 26 26 28 29 26 20 14 9 6 4 3 3 11 51 41 97 99 90 96 98
9 9 10 12 13 15 17 18 18 16 16 19 24 27 28 31 35 36 36 36 36 40 39 36 32 29 29 23 14 9 5 3 3 13 87 48 55 44 73 91 90 59 95
13 14 15 16 16 17 18 19 19 21 26 30 31 30 34 37 40 41 41 39 37 36 35 34 32 29 19 11 6 4 3 2 2 4 13 80 100 93 100 77 75 93 80
14 15 17 17 17 18 20 26 32 33 34 36 35 36 40 40 40 37 31 34 34 35 34 33 29 17 8 4 4 2 3 23 90 80 92 100 96 83 86 100 95 77 93

GFSMA_500_rhum_123.txt.gz
RH
73 39 25 30 37 43 43 41 50 54 55 48 41 38 45 50 46 42 36 33 32 26 19 15 14 15 15 16 18 20 21 22 24 26 26 29 28 32 35 38 37 44 55
58 78 74 55 50 32 46 43 38 46 56 54 59 53 46 46 53 53 52 48 41 39 36 30 22 18 18 19 20 22 25 27 27 28 27 24 30 35 41 40 42 49 67
35 39 85 84 68 66 61 60 42 35 34 40 45 52 57 54 50 60 64 63 57 50 44 40 37 30 27 24 23 26 27 29 25 25 27 28 33 35 44 43 58 64 69
16 22 54 96 65 65 63 59 59 63 51 40 40 44 54 60 71 72 60 61 70 71 62 55 51 48 43 38 33 30 27 26 22 26 28 33 36 43 74 62 76 74 66
17 18 26 81 63 53 54 30 35 44 53 40 29 26 36 68 82 69 91 86 75 78 90 80 66 64 52 46 41 39 36 32 27 26 26 37 36 60 81 81 88 70 61
25 18 17 22 82 52 28 19 22 22 22 21 19 14 12 25 49 44 74 74 87 96 95 88 80 74 82 74 58 55 58 53 35 28 26 68 49 92 92 88 73 66 64
41 30 22 16 31 76 49 16 14 19 22 21 29 24 21 17 12 29 42 55 78 97 97 96 90 90 89 92 84 83 82 81 43 30 63 90 82 90 89 78 64 62 64
52 44 36 26 18 59 49 49 48 31 16 14 19 20 20 23 24 19 31 71 92 95 98 94 97 96 95 93 96 96 91 85 82 94 95 83 94 92 92 77 75 72 72
28 55 48 38 26 21 43 30 34 27 21 14 15 18 21 25 27 26 22 40 84 98 93 95 94 96 86 95 97 96 95 94 99 95 95 96 97 94 84 72 80 83 76
12 48 61 50 41 28 22 21 22 26 23 19 22 19 20 29 33 30 28 23 51 86 95 92 95 86 87 98 96 97 96 98 96 94 94 94 94 96 84 84 85 88 78
16 20 61 62 50 41 30 26 24 24 26 30 30 26 30 34 36 34 30 19 19 20 27 85 93 88 89 95 93 95 97 95 97 96 93 89 87 95 95 92 94 80 82
17 17 38 65 58 47 38 34 32 34 38 38 37 37 38 39 36 28 20 23 30 71 97 90 81 92 96 96 98 96 91 92 96 96 89 81 92 92 90 90 89 74 74
14 15 25 56 61 54 47 45 45 44 42 41 41 41 39 29 20 26 33 77 96 90 90 89 94 88 93 96 94 92 79 63 54 52 46 42 36 47 44 70 61 51 74
13 17 34 53 59 57 54 51 47 45 44 46 40 25 46 55 35 65 99 99 90 88 86 95 98 95 72 64 54 44 42 54 45 29 25 18 13 11 12 26 27 32 22
16 21 40 55 56 55 54 52 49 49 46 32 23 77 74 84 97 87 97 96 94 88 96 86 54 49 54 32 16 13 6 4 4 4 5 5 5 6 6 7 6 6 6
29 38 49 51 51 52 52 49 46 32 28 35 90 100 95 97 96 95 94 96 93 84 54 48 38 16 6 5 6 6 6 7 7 8 8 9 9 8 8 8 8 8 8
36 37 34 31 34 38 68 33 25 50 77 89 97 99 98 97 97 98 96 88 58 42 28 10 6 8 9 10 10 9 9 9 9 10 10 10 10 9 9 9 8 8 8
42 90 98 98 63 99 91 98 95 81 88 93 100 99 97 96 65 59 55 42 25 12 9 8 9 11 12 14 15 14 16 18 19 18 17 15 14 13 13 11 10 9 8
85 98 97 99 99 99 98 98 97 98 98 96 92 88 86 66 42 20 7 8 11 15 17 16 15 15 16 18 20 23 25 25 26 28 27 26 23 21 16 11 9 8 8
98 97 97 97 98 97 97 96 89 83 59 47 33 21 10 7 9 11 13 15 16 18 19 20 20 22 25 26 27 24 23 25 26 28 29 29 25 19 16 9 7 7 14
97 98 98 97 96 82 50 17 10 8 7 8 9 10 11 14 16 15 16 16 18 24 26 30 32 33 34 34 35 35 35 35 34 34 33 32 24 21 14 8 6 7 83
67 39 33 32 35 32 26 21 12 9 10 11 13 16 18 17 16 17 21 26 29 33 34 38 38 36 36 37 36 33 33 34 32 33 30 26 16 10 6 4 4 5 16
38 13 10 10 9 9 11 12 13 13 14 18 19 18 19 22 25 27 30 34 35 39 39 38 39 39 37 38 36 37 37 35 34 31 26 20 8 4 4 3 7 100 55
9 10 11 12 13 15 15 15 17 19 20 20 23 30 34 34 35 33 31 33 41 45 46 44 42 38 35 34 33 34 33 32 29 24 9 7 5 4 2 5 8 66 94
12 13 14 14 15 16 17 18 19 19 22 31 39 38 37 34 31 30 31 38 45 41 39 38 39 37 35 35 35 33 33 30 21 9 5 4 3 2 3 78 100 100 90
14 14 14 15 16 17 18 18 20 22 31 38 36 36 35 36 36 37 41 44 44 41 41 43 41 38 35 35 35 33 27 13 6 6 3 3 4 26 70 27 99 84 69

GFSMA_500_rhum_126.txt.gz
RH
49 57 60 74 74 37 38 39 32 31 30 40 52 57 56 46 38 39 46 48 49 48 44 41 38 35 29 23 18 17 17 18 19 22 25 26 26 26 25 32 38 40 50
18 22 21 45 84 74 64 37 33 36 44 43 41 45 61 62 60 57 51 58 61 60 58 54 55 52 44 38 35 30 27 22 21 21 23 26 26 27 30 32 38 41 61
19 17 22 15 46 61 73 88 78 58 53 56 41 34 34 36 44 47 55 56 56 63 61 65 63 64 64 57 49 47 42 37 36 35 36 38 37 31 27 33 39 43 71
32 23 19 22 21 30 38 76 93 82 78 64 61 65 49 35 48 41 50 41 47 68 74 70 62 63 73 79 74 77 66 54 47 45 47 45 43 34 24 29 61 67 78
18 37 31 24 22 40 43 32 87 82 72 55 52 57 59 47 19 18 14 13 54 74 52 66 90 84 93 93 87 79 90 94 87 78 56 55 58 59 67 60 88 69 74
55 43 26 35 30 28 37 50 70 82 69 60 39 29 37 30 19 19 16 18 16 12 21 42 53 68 80 96 92 96 92 95 95 94 90 93 94 95 83 91 95 85 91
43 26 32 46 61 34 34 23 21 41 83 72 22 22 24 22 22 25 22 20 22 24 22 18 52 92 97 96 91 90 94 82 89 100 96 97 97 96 87 92 90 95 97
20 27 16 12 9 11 35 42 32 20 21 79 56 46 39 33 18 14 16 18 23 27 28 26 21 51 94 96 95 91 90 88 86 98 96 91 87 94 92 98 91 97 94
26 36 25 15 10 8 10 34 47 39 24 38 73 46 38 30 23 18 19 20 20 26 34 33 28 20 53 86 96 78 82 80 97 100 90 86 88 93 92 96 98 89 84
29 38 32 30 21 16 11 19 51 55 41 28 23 25 21 21 22 23 26 26 28 33 36 35 32 26 31 42 34 82 84 86 94 97 93 92 92 94 93 96 96 98 85
30 35 36 32 28 24 18 18 38 59 53 42 34 25 25 26 28 30 31 35 36 37 36 31 26 60 23 50 95 91 80 88 90 92 90 96 99 74 61 81 84 70 78
16 32 48 50 29 18 15 12 27 52 59 51 41 34 33 35 33 39 39 39 38 36 31 26 35 68 91 96 97 97 99 97 93 84 82 74 75 65 38 41 43 38 62
19 20 36 50 41 21 18 16 20 48 60 54 44 40 42 41 42 43 43 38 29 29 43 47 100 95 89 96 98 97 82 75 78 81 73 50 28 13 12 7 5 5 5
31 40 32 33 45 32 16 16 20 50 61 56 49 48 49 47 47 45 37 49 44 48 93 98 96 96 96 98 97 87 63 43 37 18 5 4 5 5 6 6 7 7 7
29 22 30 29 26 18 13 16 40 65 65 61 58 58 54 53 48 32 76 75 80 76 98 98 98 96 93 77 64 33 20 6 5 6 6 7 8 8 9 9 9 9 9
25 22 28 23 21 14 15 36 63 71 69 66 62 57 49 37 33 90 95 82 91 94 88 93 88 70 41 30 18 8 11 9 10 11 10 11 12 13 14 14 13 12 11
17 22 20 16 15 20 32 52 57 66 89 58 36 40 48 96 98 97 97 93 94 100 81 50 52 34 12 8 9 11 13 13 11 12 14 16 16 16 19 20 21 21 21
15 15 30 41 36 40 42 46 50 86 97 89 77 96 96 95 95 99 97 89 51 41 23 10 10 14 16 17 16 17 17 19 23 26 26 26 25 25 26 27 29 29 28
34 39 47 52 66 98 89 98 97 94 97 99 100 98 97 96 94 91 85 56 30 10 10 14 14 15 17 19 22 27 32 35 36 33 32 32 34 37 35 35 37 36 35
91 85 97 97 97 98 94 97 98 97 98 98 94 75 64 43 18 13 10 10 13 15 16 15 17 21 25 27 29 36 35 32 29 30 31 32 36 37 36 38 39 38 35
98 99 98 97 94 98 98 97 97 88 52 48 26 19 10 10 11 14 18 20 20 20 22 26 28 28 24 28 39 35 35 32 31 31 33 37 37 38 38 39 37 33 26
92 98 96 97 97 97 90 77 82 63 41 12 11 13 14 17 21 22 27 32 30 28 31 29 28 26 29 40 37 34 31 32 28 32 32 32 39 38 37 33 28 22 16
62 32 19 23 35 24 34 14 11 11 13 15 18 19 20 21 25 28 31 33 33 32 29 26 29 37 36 41 40 40 36 33 28 29 29 25 30 28 30 26 18 10 6
9 10 13 16 14 12 13 14 15 16 18 19 19 19 20 24 28 31 34 35 32 30 30 44 46 45 41 43 43 35 29 28 28 32 32 26 27 26 24 19 11 8 5
11 12 13 14 14 15 16 16 17 18 18 19 20 21 24 27 31 37 37 34 36 38 45 53 53 50 45 41 37 33 31 29 28 31 33 29 28 24 16 10 6 4 2
12 13 14 16 16 15 14 15 16 17 18 20 22 26 30 32 35 35 36 37 36 37 40 53 56 50 46 42 38 36 32 28 30 34 36 30 20 12 10 5 3 4 12

GFSMA_500_rhum_129.txt.gz
RH
20 21 21 24 42 57 58 68 66 38 43 38 34 31 32 43 48 54 54 46 42 45 50 52 50 56 59 55 52 50 43 36 31 24 22 23 23 25 32 36 36 31 27
55 39 29 30 37 38 36 45 73 66 55 35 35 38 45 45 43 42 55 63 56 55 55 51 49 49 52 58 68 67 67 66 57 55 47 39 37 40 45 44 39 34 23
62 61 43 46 35 20 26 22 44 63 67 77 75 66 48 52 43 36 39 34 46 46 36 38 51 50 50 54 55 62 66 66 80 77 79 84 85 76 75 61 44 47 67
11 18 36 40 35 25 35 52 48 38 48 46 81 83 78 73 68 63 51 37 30 24 16 22 31 36 31 26 46 87 89 89 89 90 84 81 84 84 80 82 81 78 92
51 26 39 33 27 28 35 46 50 58 59 62 63 89 83 68 56 55 57 50 22 17 15 14 17 14 16 15 18 34 50 69 90 93 97 96 94 92 91 90 87 89 95
18 27 43 39 21 24 28 35 36 36 54 76 85 83 93 78 64 40 32 23 21 23 23 21 21 23 24 25 23 21 45 92 91 87 89 88 90 91 98 98 96 89 97
11 32 21 46 38 47 46 28 36 58 58 51 61 58 41 66 70 31 33 40 30 17 15 16 18 23 26 31 30 27 27 54 88 97 88 87 93 87 80 88 94 96 98
21 24 41 37 32 46 53 40 57 68 61 71 60 49 32 22 41 74 56 48 41 28 19 19 21 21 25 33 35 35 30 27 44 69 58 44 84 84 88 77 88 99 99
22 22 33 43 39 36 52 63 28 33 33 28 31 35 38 41 32 35 60 42 26 23 23 24 29 30 34 38 37 34 33 28 20 19 45 78 85 91 86 90 87 87 97
18 19 25 30 33 41 39 52 40 25 19 14 10 12 15 31 43 36 26 22 22 22 26 35 36 38 39 39 36 37 46 22 19 48 80 80 87 87 92 95 91 88 94
12 13 17 23 33 50 57 65 57 48 46 33 20 16 14 21 40 47 40 30 30 30 33 39 39 39 42 40 34 46 37 55 75 97 87 84 88 93 94 96 82 81 80
16 15 17 16 29 63 70 82 73 49 44 30 20 14 11 14 54 53 43 37 36 40 44 43 41 36 36 51 53 65 76 91 98 96 93 91 80 78 83 71 67 48 20
20 17 22 34 35 53 61 68 65 59 48 31 19 17 11 27 62 56 74 55 50 50 46 41 48 46 46 55 86 94 91 94 99 90 84 66 51 42 32 15 7 7 6
22 19 27 41 44 41 47 43 33 48 46 38 21 13 18 53 69 58 60 100 71 52 50 66 74 67 88 98 97 83 96 97 93 74 50 43 31 7 5 5 6 7 8
24 22 20 22 42 38 34 63 64 62 56 27 15 15 31 71 73 68 66 80 99 52 44 98 86 75 82 76 87 98 92 89 46 25 6 6 7 8 9 10 12 13 15
40 29 24 35 39 39 41 42 37 36 30 17 14 25 58 72 73 73 98 95 87 47 74 100 88 89 91 84 63 47 37 32 16 10 11 12 12 13 16 18 18 18 19
33 28 34 45 39 35 26 28 35 23 14 21 49 65 70 78 89 51 48 50 98 91 100 97 96 97 75 53 40 24 13 13 14 16 18 20 24 28 31 31 29 28 28
46 58 40 24 21 19 22 17 15 16 23 51 56 97 97 99 80 75 76 99 100 98 95 73 88 64 56 42 17 11 17 20 22 23 26 32 36 37 33 29 24 24 23
18 17 15 15 17 18 20 25 38 40 47 53 75 98 99 100 100 98 98 98 98 96 82 57 44 22 10 13 16 18 22 25 28 30 40 43 39 35 35 34 30 30 33
33 35 34 36 40 46 41 40 68 96 98 98 98 98 96 99 95 91 74 61 43 36 22 12 14 18 20 24 23 23 25 25 25 38 40 35 33 33 32 32 30 29 28
91 96 99 96 95 98 97 98 98 98 98 99 98 96 86 52 19 13 13 15 19 22 22 23 28 30 31 30 27 27 25 27 32 36 37 43 42 40 32 28 26 27 28
100 100 100 97 96 98 98 97 98 97 95 92 81 51 22 14 16 21 26 25 25 30 36 36 35 32 30 27 26 25 27 29 32 42 40 37 36 32 30 29 29 28 28
73 65 56 70 82 78 81 83 60 38 18 14 15 17 19 22 22 22 22 24 30 34 38 39 37 34 31 28 26 27 28 30 35 38 38 35 36 32 29 28 27 28 30
18 26 30 29 18 15 17 14 15 15 16 17 18 19 19 19 20 21 23 28 29 33 34 32 33 32 31 30 30 29 29 32 41 48 47 39 38 33 28 26 26 28 32
12 12 13 13 14 14 14 15 16 17 17 16 17 17 18 19 21 23 26 28 32 34 36 36 35 35 34 33 33 33 40 51 56 56 56 43 40 34 30 28 32 36 33
12 13 14 15 15 15 15 15 14 14 14 15 15 16 18 18 20 23 25 28 32 36 41 40 38 37 36 41 51 51 47 40 38 39 52 44 41 31 29 40 39 31 21

GFSMA_500_rhum_132.txt.gz
RH
27 20 18 20 17 18 20 26 47 60 59 66 53 39 38 33 35 34 37 48 56 57 54 52 46 47 48 45 46 47 45 45 52 58 59 57 58 55 59 58 54 49 54
28 37 50 40 26 28 30 30 40 50 46 60 68 56 49 38 38 34 42 47 46 41 40 52 49 43 45 42 39 45 54 59 54 54 58 64 74 76 76 73 78 76 68
7 29 64 90 82 59 41 28 42 35 17 20 50 68 66 76 83 80 60 62 62 50 37 30 32 22 19 21 26 30 27 26 23 41 62 61 70 77 74 78 81 90 89
10 15 31 33 33 62 61 54 54 54 47 47 31 35 47 45 50 93 88 80 70 71 62 33 14 13 13 15 18 17 22 20 21 25 46 57 69 78 76 74 69 71 71
12 20 21 28 46 37 23 40 47 50 47 49 78 79 64 55 58 63 91 88 67 45 46 33 21 20 23 20 20 21 24 25 32 49 31 38 71 87 89 83 80 80 85
20 16 12 19 20 54 55 42 43 32 36 50 72 72 76 70 90 97 97 92 82 55 30 27 24 19 16 15 17 19 22 25 33 44 63 56 55 81 84 76 72 72 84
27 23 19 17 39 39 42 44 42 43 39 43 54 80 92 90 92 97 91 44 45 73 60 34 40 40 28 20 18 20 22 26 32 47 74 71 57 59 64 51 53 75 84
25 28 28 27 36 32 32 41 52 56 60 60 50 47 76 95 100 95 62 45 30 34 62 63 52 40 29 23 24 27 30 31 34 36 41 76 80 66 86 89 92 91 71
21 24 28 28 31 30 37 49 52 58 61 65 76 73 90 74 63 40 50 32 49 44 33 30 34 33 22 23 29 37 39 37 37 36 41 36 60 81 74 77 86 83 76
12 16 21 28 40 53 44 45 58 60 64 61 66 75 51 29 22 19 15 15 29 46 44 38 28 24 25 29 37 41 42 43 40 37 27 57 62 75 92 93 89 86 81
21 11 10 16 28 63 59 76 81 76 78 82 79 61 53 40 39 36 26 19 16 25 45 45 34 33 38 40 43 42 51 57 55 45 42 76 75 97 99 92 90 85 84
43 32 23 11 13 17 39 55 66 65 69 77 81 85 70 58 47 38 29 22 18 26 33 46 40 46 49 46 47 47 42 44 67 68 90 93 87 97 96 92 80 79 48
62 46 38 32 16 13 17 37 56 69 75 77 89 100 94 66 47 39 35 24 18 20 32 88 84 87 61 52 49 55 57 64 79 89 79 83 100 96 91 69 39 38 42
62 52 45 42 33 22 25 30 33 44 69 77 77 83 73 59 61 46 29 19 13 18 43 56 98 96 74 65 73 76 75 82 87 84 84 90 94 76 49 48 49 10 6
59 48 40 37 30 28 40 60 61 68 75 78 67 58 48 38 33 32 24 24 27 32 62 65 68 83 90 85 94 89 82 81 86 86 94 85 51 46 19 9 8 10 12
54 46 41 33 28 29 31 52 71 88 87 77 71 75 64 53 43 27 15 28 47 64 63 83 97 94 98 94 98 99 84 78 63 49 40 42 21 17 16 14 14 18 22
58 58 53 47 31 29 30 29 31 39 45 41 36 41 43 34 17 19 41 67 82 90 82 78 83 98 96 99 97 97 86 47 39 39 37 11 12 16 19 21 26 30 34
40 44 41 45 36 32 49 31 32 39 34 28 33 31 22 15 34 76 78 98 96 93 69 58 90 98 98 97 97 72 61 58 42 13 11 19 21 25 26 31 36 42 39
30 37 49 47 52 54 52 42 37 30 29 30 28 21 23 31 89 99 98 98 99 100 99 100 99 100 93 85 76 77 67 30 14 20 27 32 34 32 34 36 39 38 37
31 43 48 29 25 23 21 21 25 22 24 21 46 80 66 66 97 94 97 96 95 96 95 96 97 96 87 62 23 19 20 21 30 33 32 32 33 38 39 35 35 36 35
70 87 84 85 90 83 79 88 75 53 50 68 97 97 99 99 100 96 95 77 53 31 22 19 22 22 24 27 28 33 34 34 33 31 28 30 31 32 31 32 32 30 29
99 96 87 88 91 96 99 99 100 100 99 98 98 96 92 74 52 39 31 27 22 25 26 26 28 34 39 40 40 39 36 34 31 37 32 31 31 31 34 39 37 36 37
50 43 48 45 45 44 50 55 60 57 53 56 58 51 47 34 22 24 29 28 22 21 21 22 24 26 31 30 32 34 33 29 31 34 30 29 34 38 41 41 39 38 36
16 17 16 16 16 13 14 17 19 18 16 16 17 18 18 18 19 21 21 21 21 23 25 26 29 32 34 33 32 32 32 32 34 35 34 39 39 28 17 12 10 10 11
12 12 13 13 14 14 14 14 15 16 17 17 17 17 17 17 17 18 18 18 18 19 21 23 24 25 28 29 30 31 35 36 38 40 39 20 15 10 8 6 5 4 4
12 13 13 14 14 14 14 14 13 13 13 13 14 15 17 19 20 21 21 21 21 21 22 25 28 31 34 36 38 38 35 24 14 14 13 10 9 8 6 7 7 6 8